Wind_Speed
41 35 31 26 23 21 18 15 14 19 29 42 54 63 68 69 70 74 81 91 102 113 121 124 124 121 118 113 108 103 98 93 88 83 78 74 72 69
41 35 30 25 22 20 18 16 15 17 26 37 48 58 63 64 65 66 71 80 92 104 114 121 123 122 119 115 111 106 100 95 90 85 80 76 73 71
41 35 29 24 20 18 16 15 15 16 22 33 43 53 59 60 60 60 62 69 81 94 107 116 121 122 120 117 113 108 103 97 92 87 81 77 74 72
40 35 28 23 19 17 15 13 13 14 18 27 37 47 54 57 57 57 58 62 72 85 99 110 118 121 120 118 115 111 106 100 94 89 83 77 74 73
40 34 28 23 18 15 13 12 11 12 15 23 32 42 49 53 54 54 54 57 64 77 92 104 114 119 119 118 116 113 108 102 96 90 84 78 75 73
41 34 28 23 18 15 12 11 9 10 13 19 27 36 43 49 50 51 51 53 59 70 84 98 108 116 118 117 115 113 109 104 98 92 86 80 75 72
41 34 28 23 18 15 12 10 9 8 11 15 23 30 38 44 47 48 49 50 54 64 78 92 103 112 116 116 115 113 110 105 100 95 89 82 76 71
41 35 29 23 20 16 13 11 9 6 8 12 18 25 32 39 43 45 45 47 50 59 72 86 98 108 113 114 114 112 110 105 100 96 90 82 76 72
40 34 29 25 21 18 15 12 9 6 6 9 15 22 28 34 39 41 43 43 47 55 67 79 93 103 110 112 112 111 109 106 101 96 92 85 79 74
39 34 29 25 22 19 16 14 11 8 5 6 12 18 25 30 35 38 40 42 46 54 64 74 88 97 106 109 110 110 108 105 101 96 91 86 79 73
38 34 29 25 22 20 18 15 13 10 6 4 8 14 21 27 32 36 38 41 46 53 62 71 82 93 101 104 107 108 107 103 99 95 91 86 80 76
38 33 29 25 22 20 19 17 15 12 8 4 4 10 17 23 29 33 36 40 47 53 61 69 78 89 96 100 102 105 105 102 97 93 90 85 79 74
39 32 28 25 22 20 19 18 15 13 10 6 1 6 13 20 26 31 36 40 46 53 60 67 75 85 93 95 97 100 102 100 96 92 88 83 76 70
40 33 28 25 22 20 19 18 16 14 11 8 4 5 11 17 24 30 35 39 45 51 59 66 72 80 87 89 93 97 99 97 93 90 87 82 75 68
41 36 29 25 22 20 18 17 15 14 11 9 6 7 11 16 23 30 36 40 45 51 58 64 70 77 82 86 89 92 94 94 93 90 86 82 76 69
42 37 32 26 22 19 17 15 14 12 10 8 7 8 12 17 23 31 36 40 43 49 57 62 67 73 75 80 85 87 88 90 91 89 86 81 75 70
44 39 34 28 23 19 16 14 13 11 9 8 7 8 13 19 25 32 37 40 43 48 55 61 66 70 71 75 80 83 84 86 86 85 85 81 75 71
43 41 36 30 24 19 15 13 11 9 8 7 8 9 14 20 26 32 36 39 43 48 53 59 64 67 68 71 74 77 80 81 81 81 82 80 75 72
41 41 39 33 26 20 15 11 9 7 7 7 8 11 15 21 26 32 36 39 43 48 53 58 62 64 66 69 70 73 76 77 77 77 78 77 73 68
40 40 39 36 29 22 15 11 7 5 5 6 8 11 16 21 26 31 36 39 44 48 52 59 61 62 64 66 67 68 71 72 74 74 75 74 71 66
38 39 39 38 33 25 17 10 6 3 4 6 9 12 16 21 25 29 34 39 43 48 54 59 62 62 63 64 64 64 67 68 68 69 70 70 69 65
38 37 38 38 35 29 20 11 5 1 4 7 10 13 16 20 24 28 32 38 42 46 53 59 61 61 63 65 65 64 66 66 65 63 63 63 62 60
38 37 37 37 36 31 23 14 6 2 6 9 12 14 17 20 24 27 30 35 40 45 51 57 60 61 62 63 64 63 63 65 64 62 60 58 56 54
Wind_Direction
334 328 322 316 311 306 302 294 272 237 223 217 213 212 212 213 214 215 215 215 214 211 209 207 206 206 206 206 206 207 208 208 210 211 213 216 216 216
339 333 326 318 311 304 298 288 272 244 225 219 214 212 212 213 214 215 216 216 214 212 210 207 205 204 205 204 205 205 206 207 208 210 212 214 216 216
343 338 331 324 314 306 298 289 274 252 229 220 216 213 212 213 213 214 215 216 215 213 210 207 205 204 203 203 204 204 205 206 207 209 211 213 215 217
347 343 337 330 321 311 303 292 277 256 234 221 217 214 213 212 213 214 215 216 215 213 211 208 205 203 202 202 203 203 203 204 206 207 209 212 215 217
351 348 344 338 330 319 311 300 281 257 235 220 217 214 213 212 212 214 215 217 215 213 211 208 206 203 202 201 202 202 202 203 205 206 208 211 215 217
354 352 349 346 340 330 321 311 289 258 233 220 215 213 213 212 212 214 216 217 216 213 210 208 206 203 201 201 201 201 202 203 204 205 206 209 213 217
358 356 354 352 349 342 333 323 304 266 236 220 213 211 212 212 212 214 216 217 215 212 209 206 205 203 200 200 200 201 201 202 203 204 206 208 211 215
0 360 359 359 356 353 345 334 320 288 241 221 212 210 211 211 212 214 215 216 214 210 207 205 204 202 200 199 200 200 201 201 202 204 205 207 211 214
3 3 4 5 5 2 357 348 334 310 259 228 216 211 210 210 211 213 214 214 211 207 205 203 202 201 200 198 199 200 201 201 202 204 205 207 211 214
4 6 7 8 9 8 5 359 351 337 296 242 219 210 207 208 209 210 212 210 206 203 201 200 200 200 199 198 199 200 201 201 202 203 205 206 209 211
6 8 10 11 13 13 12 9 4 356 338 278 221 208 205 205 206 207 208 205 201 197 196 196 197 198 198 198 199 200 201 201 202 204 205 207 210 213
7 9 11 12 15 17 17 16 13 9 2 341 230 207 202 200 200 200 200 197 194 192 191 191 194 196 197 197 198 200 201 201 202 203 205 208 211 212
8 8 10 13 15 17 19 18 18 19 20 16 334 194 193 192 191 191 190 189 188 187 187 188 191 193 195 196 198 200 201 202 202 203 205 207 209 212
9 9 10 12 13 15 17 18 21 24 28 33 64 150 175 182 183 182 181 181 181 183 183 185 188 191 193 195 198 199 201 202 203 203 205 205 207 210
8 10 10 10 12 12 14 18 22 27 33 44 76 128 157 169 173 174 174 175 177 181 181 181 184 187 191 193 196 198 201 202 203 204 205 206 207 209
8 9 10 9 10 11 13 17 23 30 41 57 85 127 150 161 166 168 168 169 172 177 178 178 181 185 188 191 194 195 198 202 203 204 205 206 207 209
10 10 9 9 8 10 12 17 24 34 49 69 97 128 149 158 163 165 165 167 170 174 176 177 179 182 186 190 194 196 199 201 203 204 205 205 207 209
10 11 10 9 8 9 12 18 26 39 56 82 110 134 149 157 161 163 164 166 168 170 174 177 180 181 183 186 191 194 198 201 202 204 206 207 208 210
9 10 10 9 8 8 11 17 29 46 67 96 122 141 152 158 161 163 165 166 168 170 173 175 178 181 184 185 188 193 196 199 201 203 206 208 210 211
8 9 10 10 9 7 7 13 26 51 82 114 134 148 157 162 164 166 167 169 169 171 173 174 176 179 182 183 186 190 193 198 202 204 205 208 211 213
6 7 9 10 10 8 6 7 18 58 115 135 149 157 163 168 170 170 170 171 171 172 173 174 176 177 178 180 184 188 191 195 199 204 207 209 211 213
5 6 7 9 10 9 6 1 359 57 163 162 163 166 170 173 176 175 174 174 174 175 176 176 177 177 178 179 180 183 187 191 194 198 203 207 212 215
5 5 6 7 9 9 7 1 347 255 192 183 178 175 176 178 180 179 177 177 178 179 180 180 180 180 179 180 180 181 184 189 192 194 197 202 205 208
Height
5305 5296 5289 5284 5279 5275 5271 5267 5266 5266 5270 5275 5283 5295 5309 5323 5338 5352 5368 5384 5402 5423 5447 5473 5500 5527 5553 5578 5601 5624 5644 5663 5680 5696 5710 5722 5734 5744
5301 5292 5285 5279 5275 5271 5268 5266 5264 5264 5267 5271 5279 5289 5302 5316 5330 5344 5358 5372 5388 5408 5430 5455 5482 5509 5535 5560 5584 5608 5629 5649 5667 5683 5698 5711 5723 5734
5298 5289 5282 5276 5272 5269 5266 5264 5262 5262 5264 5269 5275 5285 5296 5309 5323 5336 5348 5361 5376 5393 5414 5438 5464 5491 5517 5543 5568 5591 5614 5635 5654 5671 5686 5700 5713 5725
5297 5287 5280 5274 5270 5267 5264 5262 5261 5261 5262 5266 5272 5281 5292 5304 5316 5329 5340 5351 5364 5381 5400 5423 5448 5474 5501 5527 5552 5576 5599 5621 5641 5659 5676 5690 5702 5714
5296 5287 5279 5273 5268 5265 5263 5261 5260 5260 5261 5264 5269 5277 5287 5298 5310 5322 5332 5343 5355 5370 5388 5410 5434 5460 5486 5512 5538 5562 5586 5609 5630 5647 5663 5678 5692 5704
5296 5287 5279 5273 5268 5265 5263 5261 5259 5259 5260 5262 5267 5274 5283 5294 5305 5316 5326 5336 5347 5360 5377 5398 5422 5447 5473 5500 5527 5551 5573 5594 5615 5635 5652 5667 5681 5694
5297 5288 5280 5274 5269 5265 5263 5261 5260 5259 5259 5261 5265 5271 5279 5289 5299 5309 5319 5329 5340 5352 5368 5388 5412 5437 5462 5488 5512 5536 5560 5583 5604 5623 5641 5656 5670 5683
5299 5290 5282 5276 5271 5267 5264 5262 5260 5259 5259 5261 5264 5269 5276 5284 5294 5303 5313 5322 5333 5345 5361 5380 5401 5426 5452 5478 5503 5527 5549 5571 5593 5613 5630 5646 5660 5673
5303 5293 5285 5279 5273 5269 5266 5263 5261 5260 5260 5261 5263 5267 5273 5280 5289 5298 5307 5316 5327 5338 5353 5373 5394 5419 5444 5469 5493 5516 5539 5561 5582 5602 5620 5636 5650 5664
5306 5297 5289 5282 5277 5272 5268 5265 5263 5261 5260 5260 5262 5265 5270 5276 5283 5292 5301 5311 5320 5332 5347 5367 5388 5413 5437 5461 5484 5507 5529 5551 5572 5592 5610 5626 5641 5654
5309 5301 5293 5286 5281 5276 5272 5268 5265 5263 5261 5261 5261 5263 5267 5272 5279 5287 5296 5305 5316 5328 5343 5362 5383 5406 5430 5454 5477 5499 5520 5541 5563 5582 5600 5617 5631 5645
5313 5304 5297 5290 5285 5280 5275 5272 5268 5265 5263 5262 5262 5263 5266 5270 5276 5283 5292 5301 5312 5325 5340 5359 5378 5400 5424 5447 5469 5491 5512 5533 5554 5573 5591 5608 5623 5637
5316 5308 5301 5294 5289 5284 5279 5275 5272 5268 5266 5264 5263 5264 5266 5269 5275 5282 5290 5299 5311 5323 5338 5356 5374 5395 5419 5442 5463 5484 5505 5526 5545 5564 5582 5600 5616 5630
5320 5312 5304 5298 5293 5288 5283 5279 5275 5272 5269 5267 5266 5266 5268 5271 5276 5282 5290 5300 5311 5323 5337 5354 5373 5394 5416 5437 5457 5478 5498 5519 5538 5557 5575 5592 5607 5621
5323 5315 5307 5301 5296 5291 5287 5283 5279 5276 5273 5271 5270 5270 5271 5274 5279 5285 5293 5302 5313 5325 5339 5355 5373 5392 5413 5434 5453 5473 5493 5512 5531 5549 5567 5585 5600 5614
5327 5318 5310 5304 5299 5294 5290 5287 5283 5280 5278 5276 5275 5275 5276 5279 5284 5290 5298 5306 5317 5328 5342 5357 5374 5393 5412 5430 5449 5469 5488 5506 5525 5544 5562 5578 5593 5606
5331 5322 5314 5308 5302 5298 5294 5290 5287 5284 5282 5281 5280 5280 5282 5285 5290 5295 5303 5311 5321 5332 5345 5360 5375 5392 5410 5428 5446 5465 5483 5502 5521 5539 5555 5570 5584 5598
5335 5326 5318 5311 5305 5300 5296 5293 5291 5289 5287 5286 5286 5286 5288 5291 5296 5301 5308 5316 5325 5336 5348 5362 5376 5393 5409 5427 5444 5462 5479 5497 5516 5532 5549 5563 5577 5590
5338 5330 5321 5313 5307 5302 5299 5296 5294 5292 5291 5291 5291 5292 5294 5297 5302 5307 5314 5321 5329 5339 5350 5363 5377 5392 5408 5424 5440 5457 5476 5492 5509 5526 5541 5557 5571 5585
5342 5333 5325 5317 5310 5305 5301 5298 5297 5296 5295 5295 5296 5297 5299 5303 5307 5312 5318 5325 5333 5342 5352 5365 5378 5392 5407 5422 5439 5454 5470 5488 5504 5520 5535 5550 5564 5577
5344 5336 5328 5320 5313 5307 5302 5300 5298 5298 5298 5298 5300 5301 5304 5307 5311 5316 5322 5329 5336 5345 5355 5366 5379 5392 5406 5421 5438 5452 5467 5483 5499 5516 5531 5545 5558 5569
5346 5339 5331 5323 5316 5309 5304 5301 5300 5299 5300 5301 5302 5305 5308 5311 5315 5320 5325 5332 5339 5347 5357 5368 5379 5392 5405 5420 5435 5449 5464 5480 5495 5511 5526 5542 5554 5566
5348 5341 5333 5326 5318 5311 5306 5302 5300 5300 5300 5302 5304 5307 5310 5314 5318 5322 5328 5334 5341 5349 5358 5368 5379 5391 5403 5416 5431 5445 5460 5475 5490 5504 5518 5532 5547 5561